SCP
0 0 0 0 0 0 0 0 0 0 0 0 0 0 0 0 0 0 0 0 0 0 0 0 0 -0 -0 0 0 0 0 0 0 0 0 0 0 0
0 0 0 0 0 0 0 0 0 0 0 0 0 0 0 0 0 0 0 0 0 0 0 0 0 -0 -0 -0 -0 -0 0 0 0 0 0 0 0 0
0 0 0 0 0 0 0 0 0 0 0 0 0 0 0 0 0 0 0 0 0 0 0 0 0 0 0 0 0 0 0 0 0 0 0 0 0 0
0 0 0 0 0 0 0 0 0 0 0 0 0 0 0 0 0 0 0 0 0 0 0 0 0 0 0 0 0 0 0 0 0 0 0 0 0 0
0 0 0 0 0 0 0 0 0 0 0 0 0 0 0 0 0 0 0 0 0 0 0 0 0 0 0 0 0 0 0 0 0 0 0 0 0 0
0 0 0 0 0 0 0 0 0 0 0 0 0 0 0 0 0 0 0 0 0 0 0 0 0 0 0 0 0 0 0 0 0 0 0 0 0 0
0 0 0 0 0 0 0 0 0 0 0 0 0 0 0 0 0 0 0 0 0 0 0 0 0 0 0 0 0 0 0 0 0 0 0 0 0 0
0 0 0 0 0 0 0 0 0 0 0 0 0 0 0 0 0 0 0 0 0 0 0 0 0 0 0 0 0 0 0 0 0 0 0 0 0 0
0 0 0 0 0 0 0 0 0 0 0 0 0 0 0 0 0 0 0 0 0 0 0 0 0 0 0 0 0 0 0 0 0 0 0 0 0 0
0 0 0 0 0 0 0 0 0 0 0 0 0 0 0 0 0 0 0 0 0 0 0 0 0 0 0 0 0 0 0 0 0 0 0 0 0 0
0 0 0 0 0 0 0 0 0 0 0 0 0 0 0 0 0 0 0 0 0 0 0 0 0 0 0 0 0 0 0 0 0 0 0 0 0 0
1 1 0 0 0 0 0 0 0 0 0 0 0 0 0 0 0 0 0 0 0 0 0 0 0 0 0 0 0 0 0 0 0 0 0 0 0 0
1 1 1 0 0 0 0 0 0 0 0 0 0 0 0 0 0 0 0 0 0 0 0 0 0 0 0 0 0 0 0 0 0 0 0 0 0 0
2 0 0 0 0 0 0 0 0 0 0 0 0 0 0 0 0 0 0 0 0 0 0 0 0 0 0 0 0 0 0 0 0 0 0 0 0 0
0 0 0 0 0 0 0 0 0 0 0 0 0 0 0 0 0 0 0 0 0 0 0 0 0 0 0 0 0 0 0 0 0 0 0 0 0 0
0 0 0 0 0 0 0 0 0 0 0 0 0 0 0 0 0 0 0 0 0 0 0 0 0 0 0 0 0 0 0 0 0 0 0 0 0 0
0 0 0 0 0 0 0 0 0 0 0 0 0 0 0 0 0 0 0 0 0 0 0 0 0 0 0 0 0 0 0 0 0 0 0 0 0 0
0 0 0 0 0 0 0 0 0 0 0 0 0 0 0 0 0 0 0 0 0 0 0 0 0 0 0 0 0 0 0 0 0 0 0 0 0 0
0 0 0 0 0 0 0 0 0 0 0 0 0 0 0 0 0 0 0 0 0 0 0 0 0 0 0 0 0 0 0 0 0 0 0 0 0 0
0 0 0 0 0 0 0 0 0 0 0 0 0 0 0 0 0 0 0 0 0 0 0 0 0 0 0 0 0 0 0 0 0 0 0 0 0 0
0 0 0 0 0 0 0 0 0 0 0 0 0 0 0 0 0 0 0 0 0 0 0 0 0 0 0 0 0 0 0 0 0 0 0 0 0 0
0 0 0 0 0 0 0 0 0 0 0 0 0 0 0 0 0 0 0 0 0 0 0 0 0 0 0 0 0 0 0 0 0 0 0 -0 0 -0
0 0 0 0 0 0 0 0 0 0 0 0 0 0 0 0 0 0 0 0 0 0 0 0 0 0 0 0 0 0 0 0 0 0 0 0 0 0
Wind_Speed_500mb
24 27 26 27 25 21 21 20 18 18 18 15 19 21 22 23 29 31 30 30 26 25 25 25 25 25 26 30 33 34 33 32 33 33 34 34 34 34
29 29 30 30 32 29 23 22 22 20 18 14 14 14 14 15 17 22 24 26 30 33 35 32 32 32 32 32 31 32 35 37 41 40 37 36 33 31
36 33 32 32 35 35 34 31 29 26 26 24 21 18 17 16 19 22 24 27 33 36 38 37 38 36 39 40 42 46 47 48 45 45 46 41 41 42
41 40 38 37 36 37 35 34 32 30 29 28 27 23 23 23 20 24 28 31 34 33 33 33 36 41 44 49 56 52 46 46 44 43 47 50 48 47
42 43 45 43 42 40 38 35 32 30 30 32 30 28 25 23 23 25 26 31 34 34 33 33 37 45 51 50 48 49 51 51 51 53 54 54 54 55
49 46 45 50 49 44 41 38 34 34 34 33 30 29 26 27 32 34 33 35 38 32 31 33 32 31 36 40 38 39 43 45 48 50 51 52 55 57
55 54 51 49 51 50 45 41 38 38 36 36 35 37 37 32 31 34 40 41 43 37 34 34 36 42 44 42 40 38 38 39 38 36 38 42 45 47
59 55 58 57 50 50 54 47 45 42 40 40 41 44 44 39 36 36 41 45 46 42 37 40 44 46 47 42 41 42 42 43 42 46 48 50 52 49
62 57 58 61 52 49 53 54 46 46 46 43 44 42 45 38 38 41 41 41 39 36 43 48 49 52 44 39 40 43 46 47 49 50 48 43 39 40
67 61 56 57 54 51 51 52 50 42 44 42 41 40 38 40 38 41 41 41 39 37 42 50 47 42 34 39 48 51 49 41 39 37 40 41 42 42
71 61 54 51 47 47 52 52 49 41 38 35 38 38 33 36 37 35 33 36 43 42 41 41 34 37 43 48 44 36 44 39 38 41 41 43 46 52
61 56 49 46 45 47 49 50 48 41 38 34 34 31 31 32 30 28 33 36 35 27 27 33 41 42 34 38 32 43 44 38 33 42 49 53 56 62
58 55 45 39 41 42 41 43 44 36 37 36 31 30 27 24 23 24 21 18 24 27 30 32 40 41 40 44 44 44 44 41 52 57 48 44 44 46
56 47 45 48 43 37 38 37 38 39 36 33 32 28 21 16 16 13 12 15 24 28 33 32 37 35 37 43 47 50 49 47 58 54 53 53 53 54
49 46 51 52 43 43 36 33 31 31 34 34 29 24 17 15 15 14 17 22 27 32 27 28 29 33 39 44 50 51 52 64 46 56 63 61 57 57
37 46 47 42 38 35 33 33 33 31 32 28 27 24 16 16 21 21 25 30 31 33 24 26 27 36 41 40 41 48 54 54 55 61 71 69 63 64
32 50 46 41 36 34 36 36 34 37 34 33 28 22 17 16 22 23 30 34 33 28 25 26 30 31 29 35 47 52 48 53 56 70 77 73 72 78
59 56 45 41 33 34 36 35 36 36 34 33 27 23 21 22 27 29 33 35 29 22 25 27 28 28 37 48 45 50 53 57 65 78 74 73 88 89
64 62 59 46 33 35 37 37 36 33 32 31 27 25 25 27 28 29 36 30 22 21 21 24 27 32 43 53 59 55 56 59 74 78 68 74 92 100
59 56 45 40 36 44 44 41 37 33 27 23 26 28 26 24 27 32 27 23 19 18 22 22 28 34 38 46 61 63 51 63 69 67 68 84 92 89
48 42 35 38 45 47 42 38 35 30 25 23 27 26 23 26 27 25 24 17 15 17 24 26 29 32 36 44 55 58 65 64 55 57 57 84 79 89
40 41 44 45 44 40 35 32 31 28 25 26 26 27 24 24 25 24 21 13 9 16 21 25 24 33 35 43 51 59 73 68 56 45 45 73 69 75
39 42 41 37 36 34 30 25 23 24 26 27 25 23 24 29 28 25 17 9 9 13 20 22 24 33 33 41 51 61 69 66 66 59 49 75 79 73
Wind_Direction_500mb
242 239 240 247 250 248 239 238 244 257 281 281 262 267 269 254 246 261 268 264 267 277 283 288 289 298 311 311 301 298 304 302 294 287 286 286 280 278
238 241 241 247 251 250 248 245 249 255 262 278 281 279 271 268 269 273 269 255 260 272 280 280 278 281 293 305 304 297 284 292 294 284 282 284 275 273
235 238 242 244 246 248 248 253 252 256 265 279 284 284 279 279 276 279 280 273 276 284 286 280 281 282 290 295 297 297 290 285 285 277 272 278 276 271
237 237 239 241 245 248 248 250 253 255 263 276 276 275 284 283 286 289 286 288 289 291 285 277 275 280 285 291 296 293 288 285 284 276 269 270 271 271
244 244 242 241 243 247 247 250 256 262 269 274 274 271 276 281 292 294 292 294 294 289 283 284 289 291 291 292 293 294 291 286 280 275 273 273 271 270
242 246 247 245 247 247 248 249 250 254 263 270 271 269 269 274 281 290 300 312 309 298 290 289 288 290 299 301 299 297 296 293 290 287 286 282 276 268
245 246 247 248 249 249 250 247 247 250 253 258 265 268 267 267 281 289 293 304 303 296 293 299 299 302 306 306 307 307 304 296 294 293 287 284 282 279
248 250 251 248 249 251 250 253 251 250 250 250 257 260 270 273 282 283 292 300 302 299 293 293 297 300 304 299 303 303 300 301 294 293 290 284 275 271
250 252 253 251 251 251 251 251 253 252 254 258 264 265 273 270 276 283 291 294 291 288 289 290 294 296 300 299 303 305 302 298 292 289 290 287 284 283
247 247 249 247 247 246 249 248 250 255 254 259 269 273 267 272 281 286 286 286 283 287 293 292 299 298 296 301 305 306 303 301 297 289 287 285 282 286
243 242 239 241 238 237 238 240 244 250 246 259 268 266 267 276 278 280 282 284 289 297 299 298 305 305 308 311 314 315 316 314 304 294 290 287 287 287
234 235 234 235 232 234 234 234 238 246 240 264 258 253 271 272 277 282 286 291 294 305 309 308 304 312 313 314 309 318 318 319 308 303 296 290 286 284
221 228 221 228 232 237 233 233 241 238 241 261 242 256 262 264 276 290 295 295 294 301 309 303 303 307 306 305 313 319 322 314 316 317 312 304 296 291
216 211 212 216 216 221 227 236 241 247 239 226 243 248 240 250 282 290 283 297 305 317 310 303 300 305 305 310 314 319 318 314 317 319 318 309 300 292
203 206 207 202 200 214 227 241 237 222 222 232 235 227 224 258 264 261 278 292 303 317 309 301 299 300 304 309 310 314 317 319 313 319 318 313 308 304
191 210 207 200 194 213 218 218 218 225 230 230 218 214 232 261 257 266 278 283 295 309 307 308 300 303 308 309 307 312 316 313 313 317 321 316 312 310
210 216 205 202 201 206 207 209 219 224 220 213 209 220 238 250 258 276 276 278 288 289 308 317 313 313 309 310 315 318 318 318 316 319 322 317 315 317
211 216 206 210 211 211 212 212 216 210 205 208 220 238 252 258 266 275 272 276 279 294 319 326 326 312 314 321 329 330 326 323 322 322 323 320 318 321
192 199 199 202 212 208 209 210 208 207 209 216 231 245 253 265 269 266 266 269 279 311 331 335 330 323 322 325 330 336 331 328 323 322 324 323 320 322
193 195 196 199 208 208 202 202 208 212 213 216 237 246 257 260 265 266 256 262 296 325 339 332 326 326 326 329 328 334 337 331 329 322 326 328 326 328
194 194 195 196 194 195 201 210 214 207 219 234 242 244 244 258 260 246 255 277 313 338 337 333 328 327 326 328 333 334 339 340 334 328 333 339 334 327
186 179 178 182 187 198 203 201 204 215 231 240 242 247 251 245 237 247 266 290 328 339 329 331 331 333 330 334 337 339 339 340 340 339 344 357 342 325
175 176 179 182 187 186 188 200 222 237 239 239 238 235 229 226 233 248 272 297 341 340 325 329 332 337 335 338 340 341 342 344 347 345 343 356 358 350
Wind_Speed_850mb
24 27 26 27 25 21 21 20 18 18 18 15 19 21 22 23 29 31 30 30 26 25 25 25 25 25 26 30 33 34 33 32 33 33 34 34 34 34
29 29 30 30 32 29 23 22 22 20 18 14 14 14 14 15 17 22 24 26 30 33 35 32 32 32 32 32 31 32 35 37 41 40 37 36 33 31
36 33 32 32 35 35 34 31 29 26 26 24 21 18 17 16 19 22 24 27 33 36 38 37 38 36 39 40 42 46 47 48 45 45 46 41 41 42
41 40 38 37 36 37 35 34 32 30 29 28 27 23 23 23 20 24 28 31 34 33 33 33 36 41 44 49 56 52 46 46 44 43 47 50 48 47
42 43 45 43 42 40 38 35 32 30 30 32 30 28 25 23 23 25 26 31 34 34 33 33 37 45 51 50 48 49 51 51 51 53 54 54 54 55
49 46 45 50 49 44 41 38 34 34 34 33 30 29 26 27 32 34 33 35 38 32 31 33 32 31 36 40 38 39 43 45 48 50 51 52 55 57
55 54 51 49 51 50 45 41 38 38 36 36 35 37 37 32 31 34 40 41 43 37 34 34 36 42 44 42 40 38 38 39 38 36 38 42 45 47
59 55 58 57 50 50 54 47 45 42 40 40 41 44 44 39 36 36 41 45 46 42 37 40 44 46 47 42 41 42 42 43 42 46 48 50 52 49
62 57 58 61 52 49 53 54 46 46 46 43 44 42 45 38 38 41 41 41 39 36 43 48 49 52 44 39 40 43 46 47 49 50 48 43 39 40
67 61 56 57 54 51 51 52 50 42 44 42 41 40 38 40 38 41 41 41 39 37 42 50 47 42 34 39 48 51 49 41 39 37 40 41 42 42
71 61 54 51 47 47 52 52 49 41 38 35 38 38 33 36 37 35 33 36 43 42 41 41 34 37 43 48 44 36 44 39 38 41 41 43 46 52
61 56 49 46 45 47 49 50 48 41 38 34 34 31 31 32 30 28 33 36 35 27 27 33 41 42 34 38 32 43 44 38 33 42 49 53 56 62
58 55 45 39 41 42 41 43 44 36 37 36 31 30 27 24 23 24 21 18 24 27 30 32 40 41 40 44 44 44 44 41 52 57 48 44 44 46
56 47 45 48 43 37 38 37 38 39 36 33 32 28 21 16 16 13 12 15 24 28 33 32 37 35 37 43 47 50 49 47 58 54 53 53 53 54
49 46 51 52 43 43 36 33 31 31 34 34 29 24 17 15 15 14 17 22 27 32 27 28 29 33 39 44 50 51 52 64 46 56 63 61 57 57
37 46 47 42 38 35 33 33 33 31 32 28 27 24 16 16 21 21 25 30 31 33 24 26 27 36 41 40 41 48 54 54 55 61 71 69 63 64
32 50 46 41 36 34 36 36 34 37 34 33 28 22 17 16 22 23 30 34 33 28 25 26 30 31 29 35 47 52 48 53 56 70 77 73 72 78
59 56 45 41 33 34 36 35 36 36 34 33 27 23 21 22 27 29 33 35 29 22 25 27 28 28 37 48 45 50 53 57 65 78 74 73 88 89
64 62 59 46 33 35 37 37 36 33 32 31 27 25 25 27 28 29 36 30 22 21 21 24 27 32 43 53 59 55 56 59 74 78 68 74 92 100
59 56 45 40 36 44 44 41 37 33 27 23 26 28 26 24 27 32 27 23 19 18 22 22 28 34 38 46 61 63 51 63 69 67 68 84 92 89
48 42 35 38 45 47 42 38 35 30 25 23 27 26 23 26 27 25 24 17 15 17 24 26 29 32 36 44 55 58 65 64 55 57 57 84 79 89
40 41 44 45 44 40 35 32 31 28 25 26 26 27 24 24 25 24 21 13 9 16 21 25 24 33 35 43 51 59 73 68 56 45 45 73 69 75
39 42 41 37 36 34 30 25 23 24 26 27 25 23 24 29 28 25 17 9 9 13 20 22 24 33 33 41 51 61 69 66 66 59 49 75 79 73
Wind_Direction_850mb
242 239 240 247 250 248 239 238 244 257 281 281 262 267 269 254 246 261 268 264 267 277 283 288 289 298 311 311 301 298 304 302 294 287 286 286 280 278
238 241 241 247 251 250 248 245 249 255 262 278 281 279 271 268 269 273 269 255 260 272 280 280 278 281 293 305 304 297 284 292 294 284 282 284 275 273
235 238 242 244 246 248 248 253 252 256 265 279 284 284 279 279 276 279 280 273 276 284 286 280 281 282 290 295 297 297 290 285 285 277 272 278 276 271
237 237 239 241 245 248 248 250 253 255 263 276 276 275 284 283 286 289 286 288 289 291 285 277 275 280 285 291 296 293 288 285 284 276 269 270 271 271
244 244 242 241 243 247 247 250 256 262 269 274 274 271 276 281 292 294 292 294 294 289 283 284 289 291 291 292 293 294 291 286 280 275 273 273 271 270
242 246 247 245 247 247 248 249 250 254 263 270 271 269 269 274 281 290 300 312 309 298 290 289 288 290 299 301 299 297 296 293 290 287 286 282 276 268
245 246 247 248 249 249 250 247 247 250 253 258 265 268 267 267 281 289 293 304 303 296 293 299 299 302 306 306 307 307 304 296 294 293 287 284 282 279
248 250 251 248 249 251 250 253 251 250 250 250 257 260 270 273 282 283 292 300 302 299 293 293 297 300 304 299 303 303 300 301 294 293 290 284 275 271
250 252 253 251 251 251 251 251 253 252 254 258 264 265 273 270 276 283 291 294 291 288 289 290 294 296 300 299 303 305 302 298 292 289 290 287 284 283
247 247 249 247 247 246 249 248 250 255 254 259 269 273 267 272 281 286 286 286 283 287 293 292 299 298 296 301 305 306 303 301 297 289 287 285 282 286
243 242 239 241 238 237 238 240 244 250 246 259 268 266 267 276 278 280 282 284 289 297 299 298 305 305 308 311 314 315 316 314 304 294 290 287 287 287
234 235 234 235 232 234 234 234 238 246 240 264 258 253 271 272 277 282 286 291 294 305 309 308 304 312 313 314 309 318 318 319 308 303 296 290 286 284
221 228 221 228 232 237 233 233 241 238 241 261 242 256 262 264 276 290 295 295 294 301 309 303 303 307 306 305 313 319 322 314 316 317 312 304 296 291
216 211 212 216 216 221 227 236 241 247 239 226 243 248 240 250 282 290 283 297 305 317 310 303 300 305 305 310 314 319 318 314 317 319 318 309 300 292
203 206 207 202 200 214 227 241 237 222 222 232 235 227 224 258 264 261 278 292 303 317 309 301 299 300 304 309 310 314 317 319 313 319 318 313 308 304
191 210 207 200 194 213 218 218 218 225 230 230 218 214 232 261 257 266 278 283 295 309 307 308 300 303 308 309 307 312 316 313 313 317 321 316 312 310
210 216 205 202 201 206 207 209 219 224 220 213 209 220 238 250 258 276 276 278 288 289 308 317 313 313 309 310 315 318 318 318 316 319 322 317 315 317
211 216 206 210 211 211 212 212 216 210 205 208 220 238 252 258 266 275 272 276 279 294 319 326 326 312 314 321 329 330 326 323 322 322 323 320 318 321
192 199 199 202 212 208 209 210 208 207 209 216 231 245 253 265 269 266 266 269 279 311 331 335 330 323 322 325 330 336 331 328 323 322 324 323 320 322
193 195 196 199 208 208 202 202 208 212 213 216 237 246 257 260 265 266 256 262 296 325 339 332 326 326 326 329 328 334 337 331 329 322 326 328 326 328
194 194 195 196 194 195 201 210 214 207 219 234 242 244 244 258 260 246 255 277 313 338 337 333 328 327 326 328 333 334 339 340 334 328 333 339 334 327
186 179 178 182 187 198 203 201 204 215 231 240 242 247 251 245 237 247 266 290 328 339 329 331 331 333 330 334 337 339 339 340 340 339 344 357 342 325
175 176 179 182 187 186 188 200 222 237 239 239 238 235 229 226 233 248 272 297 341 340 325 329 332 337 335 338 340 341 342 344 347 345 343 356 358 350